Location: BAF
(53.9483°N, 27.7497°E)
Time: 16:51:11
(UTC+02:00)

ISS - Visible Passes

Search period start: 28 November 2020 00:00
Search period end: 08 December 2020 00:00
Orbit: 418 x 420 km, 51.6° (Epoch: 28 November)

Date Brightness Start Highest point End Pass type
(mag) Time Alt. Az. Time Alt. Az. Time Alt. Az.
28 Nov -3.3 17:39:21 10° WSW 17:42:38 51° S 17:43:59 30° ESE visible
28 Nov -0.9 19:15:56 10° W 19:16:57 18° W 19:16:57 18° W visible
29 Nov -2.9 16:51:57 10° WSW 16:55:10 43° SSE 16:58:20 10° E visible
29 Nov -3.0 18:28:26 10° W 18:31:17 51° SW 18:31:17 51° SW visible
30 Nov -3.4 17:40:57 10° W 17:44:16 59° S 17:45:39 31° ESE visible
30 Nov -0.8 19:17:40 10° W 19:18:36 17° W 19:18:36 17° W visible
01 Dec -3.3 16:53:27 10° WSW 16:56:46 56° S 17:00:01 10° E visible
01 Dec -2.8 18:30:07 10° W 18:32:59 43° SW 18:32:59 43° SW visible
02 Dec -3.2 17:42:35 10° W 17:45:52 53° S 17:47:24 27° SE visible
02 Dec -0.7 19:19:30 10° W 19:20:22 15° WSW 19:20:22 15° WSW visible
03 Dec -3.2 16:55:01 10° W 16:58:21 57° S 17:01:40 10° ESE visible
03 Dec -2.2 18:31:49 10° W 18:34:50 30° SSW 18:34:50 30° SSW visible
04 Dec -2.5 17:44:12 10° W 17:47:22 38° SSW 17:49:25 18° SE visible
04 Dec -0.5 19:21:54 10° WSW 19:22:24 11° WSW 19:22:24 11° WSW visible
05 Dec -2.8 16:56:37 10° W 16:59:52 46° SSW 17:03:07 10° ESE visible
05 Dec -1.3 18:33:47 10° WSW 18:36:09 18° SSW 18:37:06 16° SSW visible
06 Dec -1.5 17:45:58 10° W 17:48:43 24° SSW 17:51:29 10° SSE visible
07 Dec -1.9 16:58:14 10° W 17:01:15 30° SSW 17:04:15 10° SE visible
